Time,TemperatureF,DewpointF,PressureIn,WindDirection,WindDirectionDegrees,WindSpeedMPH,WindSpeedGustMPH,Humidity,HourlyPrecipIn,Conditions,Clouds,dailyrainin,SoftwareType,DateUTC
2013-02-02 12:53:00,23.0,6.0,30.12,SSE,157,2.0,-999.0,48,-99.99,,,-99.99,,2013-02-02 17:53:00,
2013-02-02 13:03:00,23.0,6.0,30.12,SSE,157,2.0,-999.0,48,-99.99,,,-99.99,,2013-02-02 18:03:00,
2013-02-02 13:12:00,23.0,6.0,30.12,SSE,157,2.0,-999.0,48,-99.99,,,-99.99,,2013-02-02 18:12:00,
2013-02-02 13:22:00,23.0,6.0,30.12,SSE,157,2.0,-999.0,48,-99.99,,,-99.99,,2013-02-02 18:22:00,
2013-02-02 13:32:00,24.0,8.0,30.10,SSE,151,1.0,1.0,49,0.00,,,0.00,,2013-02-02 18:32:00,
2013-02-02 13:42:00,24.0,8.0,30.10,SSE,151,1.0,1.0,49,0.00,,,0.00,,2013-02-02 18:42:00,
2013-02-02 13:52:00,24.0,7.0,30.09,SSE,153,4.0,4.0,48,0.00,,,0.00,,2013-02-02 18:52:00,
2013-02-02 14:02:00,24.0,7.0,30.09,SSE,153,4.0,4.0,48,0.00,,,0.00,,2013-02-02 19:02:00,
2013-02-02 14:12:00,24.0,7.0,30.09,SSE,153,4.0,4.0,48,0.00,,,0.00,,2013-02-02 19:12:00,
2013-02-02 14:21:00,24.0,7.0,30.09,SSE,153,4.0,4.0,48,0.00,,,0.00,,2013-02-02 19:21:00,
2013-02-02 14:32:00,24.0,7.0,30.09,SSE,153,4.0,4.0,48,0.00,,,0.00,,2013-02-02 19:32:00,
2013-02-02 18:52:00,27.0,17.0,29.97,SSE,160,3.0,-999.0,65,-99.99,,,-99.99,,2013-02-02 23:52:00,
2013-02-02 19:02:00,27.0,17.0,29.97,SSE,160,3.0,-999.0,65,-99.99,,,-99.99,,2013-02-03 00:02:00,
2013-02-02 19:11:00,27.0,17.0,29.97,SSE,160,3.0,-999.0,65,-99.99,,,-99.99,,2013-02-03 00:11:00,
2013-02-02 19:22:00,28.0,18.0,29.97,SSE,155,5.0,5.0,65,0.00,,,0.00,,2013-02-03 00:22:00,
2013-02-02 19:32:00,28.0,18.0,29.97,SSE,153,5.0,5.0,66,0.00,,,0.00,,2013-02-03 00:32:00,
2013-02-02 19:42:00,28.0,18.0,29.97,SSE,153,5.0,5.0,66,0.00,,,0.00,,2013-02-03 00:42:00,
2013-02-02 19:52:00,28.0,18.0,29.97,SSE,153,5.0,5.0,66,0.00,,,0.00,,2013-02-03 00:52:00,
2013-02-02 20:02:00,28.0,18.0,29.97,SSE,153,5.0,5.0,66,0.00,,,0.00,,2013-02-03 01:02:00,
2013-02-02 20:11:00,28.0,18.0,29.97,SSE,153,5.0,5.0,66,0.00,,,0.00,,2013-02-03 01:11:00,
2013-02-02 21:01:00,27.0,20.0,29.95,SSE,152,2.0,2.0,73,0.00,,,0.00,,2013-02-03 02:01:00,
2013-02-02 21:11:00,27.0,20.0,29.95,SSE,152,2.0,2.0,73,0.00,,,0.00,,2013-02-03 02:11:00,
2013-02-02 21:21:00,27.0,20.0,29.95,SSE,152,2.0,2.0,73,0.00,,,0.00,,2013-02-03 02:21:00,
2013-02-02 21:32:00,27.0,20.0,29.94,SSE,152,0.0,0.0,75,0.00,,,0.00,,2013-02-03 02:32:00,
2013-02-02 21:42:00,27.0,20.0,29.94,SSE,152,0.0,0.0,75,0.00,,,0.00,,2013-02-03 02:42:00,
2013-02-02 21:52:00,26.0,19.0,29.94,SSE,152,0.0,0.0,75,0.00,,,0.00,,2013-02-03 02:52:00,
2013-02-02 22:02:00,26.0,19.0,29.94,SSE,152,0.0,0.0,76,0.00,,,0.00,,2013-02-03 03:02:00,
2013-02-02 22:11:00,26.0,19.0,29.94,SSE,152,0.0,0.0,76,0.00,,,0.00,,2013-02-03 03:11:00,
2013-02-02 22:22:00,26.0,19.0,29.94,SSE,152,0.0,0.0,76,0.00,,,0.00,,2013-02-03 03:22:00,
2013-02-02 22:32:00,26.0,20.0,29.94,SSE,152,0.0,0.0,78,0.00,,,0.00,,2013-02-03 03:32:00,
2013-02-02 22:42:00,26.0,20.0,29.94,SSE,152,0.0,0.0,78,0.00,,,0.00,,2013-02-03 03:42:00,
2013-02-02 22:52:00,26.0,20.0,29.94,SSE,152,0.0,0.0,78,0.00,,,0.00,,2013-02-03 03:52:00,
2013-02-02 23:01:00,26.0,20.0,29.94,SSE,152,0.0,0.0,78,0.00,,,0.00,,2013-02-03 04:01:00,
2013-02-02 23:11:00,26.0,20.0,29.94,SSE,152,0.0,0.0,78,0.00,,,0.00,,2013-02-03 04:11:00,
2013-02-02 23:32:00,27.0,21.0,29.93,SSE,152,0.0,0.0,77,0.00,,,0.00,,2013-02-03 04:32:00,
2013-02-02 23:42:00,27.0,21.0,29.93,SSE,152,0.0,0.0,77,0.00,,,0.00,,2013-02-03 04:42:00,
2013-02-02 23:52:00,27.0,21.0,29.93,SSE,152,0.0,0.0,77,0.00,,,0.00,,2013-02-03 04:52:00,